Location: Geroldsau
(48.7259°N, 8.2466°E)
Time: 07:42:14
(UTC+00:00)

Cosmos 372 Rocket - Pass Details

Date: 20 June 2021
Orbit: 737 x 768 km, 74.1° (Epoch: 26 July)

Event Time Altitude Azimuth Distance (km) Brightness Sun altitude
Rises 01:00:51 0° 335° (NNW) 3,237 7.9 -14.9°
Reaches altitude 10° 01:03:14 10° 334° (NNW) 2,310 7.1 -14.8°
Maximum altitude 01:08:28 77° 250° (WSW) 793 3.9 -14.5°
Enters shadow 01:13:08 13° 165° (SSE) 2,086 5.8 -14.1°
